Glencoe, MN

6:49 PM CDT on August 22, 2017 (GMT -0500)
Glencoe Municipal

Weather History for KGYL - August, 2013

Change the Weather History Date:

Thursday, August 22, 2013

  Actual Average (KHCD) Record (KHCD)
Temperature  
Mean Temperature 73 °F -  
Max Temperature 83 °F 79 °F 96 °F (1971)
Min Temperature 62 °F 58 °F 45 °F (1958)
Cooling Degree Days 8    
Growing Degree Days 23 (Base 50)    
Moisture  
Dew Point 52 °F    
Average Humidity 49    
Maximum Humidity 79    
Minimum Humidity 28    
Precipitation  
Precipitation 0.00 in - - ()
Sea Level Pressure  
Sea Level Pressure 30.10 in    
Wind  
Wind Speed 5 mph (NNE)    
Max Wind Speed 12 mph    
Max Gust Speed 21 mph    
Visibility 10 miles    
Events Thunderstorm    
Averages and records for this station are not official NWS values.
T = Trace of Precipitation, MM = Missing Value Source: NWS Daily Summary

Daily Weather History Graph

Daily Weather History Graph

Search for Another Location

Airport or City:

Trip Planner

Search our weather history database for the weather conditions in past years. The results will help you decide how hot, cold, wet, or windy it might be!

Date:

Astronomy

Aug. 22, 2013 Rise Set
Actual Time 6:27 AM CDT 8:10 PM CDT
Civil Twilight 5:56 AM CDT 8:41 PM CDT
Nautical Twilight 5:18 AM CDT 9:18 PM CDT
Astronomical Twilight 4:37 AM CDT 9:59 PM CDT
Moon 8:46 PM CDT 8:23 AM CDT
Length of Visible Light 14h 45m
Length of Day
13h 43m
Waning Gibbous, 96% of the Moon is Illuminated
Aug 22
Waning Gibbous
Aug 28
Last Quarter
Sep 5
New
Sep 12
First Quarter
Sep 19
Full

Hourly Weather History & Observations

Time (CDT) Temp. Dew Point Humidity Pressure Visibility Wind Dir Wind Speed Gust Speed Precip Events Conditions
12:14 AM 72.5 °F 60.1 °F 65% 30.02 in 10.0 mi North 3.5 mph - N/A   Scattered Clouds
12:34 AM 72.5 °F 59.4 °F 63% 30.03 in 10.0 mi North 5.8 mph - N/A   Clear
12:54 AM 72.5 °F 58.3 °F 61% 30.02 in 10.0 mi NNE 5.8 mph - N/A   Clear
1:14 AM 72.1 °F 58.1 °F 61% 30.03 in 10.0 mi NNE 4.6 mph - N/A   Clear
1:34 AM 72.0 °F 57.6 °F 60% 30.04 in 10.0 mi NNE 3.5 mph - N/A   Clear
1:54 AM 71.6 °F 57.4 °F 61% 30.04 in 10.0 mi NNE 4.6 mph - N/A   Scattered Clouds
2:14 AM 71.2 °F 57.2 °F 61% 30.04 in 10.0 mi NNE 5.8 mph - N/A   Mostly Cloudy
2:34 AM 71.6 °F 56.3 °F 58% 30.03 in 10.0 mi NNE 6.9 mph - N/A   Scattered Clouds
2:54 AM 71.2 °F 56.3 °F 59% 30.04 in 10.0 mi NNE 5.8 mph - N/A   Scattered Clouds
3:14 AM 71.1 °F 56.1 °F 59% 30.04 in 10.0 mi NNE 5.8 mph - N/A   Mostly Cloudy
3:34 AM 70.7 °F 55.9 °F 59% 30.06 in 10.0 mi NNE 6.9 mph - N/A   Mostly Cloudy
3:54 AM 70.3 °F 55.4 °F 59% 30.06 in 10.0 mi NNE 8.1 mph - N/A Thunderstorm Overcast
4:14 AM 70.2 °F 54.9 °F 58% 30.07 in 10.0 mi NNE 8.1 mph - N/A   Mostly Cloudy
4:34 AM 69.4 °F 54.7 °F 59% 30.07 in 10.0 mi NNE 6.9 mph - N/A Thunderstorm Clear
4:54 AM 69.1 °F 54.7 °F 60% 30.07 in 10.0 mi NNE 8.1 mph - N/A Thunderstorm Clear
5:14 AM 68.9 °F 54.5 °F 60% 30.07 in 10.0 mi NNE 5.8 mph - N/A Thunderstorm Clear
5:34 AM 68.0 °F 54.0 °F 61% 30.06 in 10.0 mi NNE 6.9 mph - N/A   Clear
5:53 AM 67.1 °F 54.3 °F 63% 30.06 in 10.0 mi NNE 8.1 mph - N/A   Clear
6:14 AM 66.6 °F 53.4 °F 63% 30.06 in 10.0 mi North 8.1 mph - N/A   Clear
6:34 AM 66.4 °F 52.2 °F 60% 30.07 in 10.0 mi NNE 9.2 mph - N/A   Scattered Clouds
6:54 AM 66.6 °F 51.1 °F 57% 30.09 in 10.0 mi NNE 6.9 mph 17.3 mph N/A   Scattered Clouds
7:14 AM 67.1 °F 50.2 °F 55% 30.10 in 10.0 mi NE 4.6 mph - N/A   Mostly Cloudy
7:34 AM 66.6 °F 49.8 °F 55% 30.11 in 10.0 mi NNE 6.9 mph - N/A   Overcast
7:54 AM 66.7 °F 49.1 °F 53% 30.12 in 10.0 mi NE 6.9 mph - N/A   Scattered Clouds
8:14 AM 67.1 °F 48.6 °F 51% 30.12 in 10.0 mi NNE 8.1 mph - N/A   Scattered Clouds
8:34 AM 67.8 °F 48.0 °F 49% 30.12 in 10.0 mi NE 5.8 mph - N/A   Scattered Clouds
8:53 AM 69.3 °F 47.8 °F 46% 30.12 in 10.0 mi NE 5.8 mph - N/A   Scattered Clouds
9:14 AM 69.6 °F 47.3 °F 45% 30.12 in 10.0 mi NE 4.6 mph - N/A   Scattered Clouds
9:34 AM 70.5 °F 47.7 °F 44% 30.12 in 10.0 mi NE 5.8 mph - N/A   Mostly Cloudy
9:54 AM 72.7 °F 47.7 °F 41% 30.12 in 10.0 mi NE 5.8 mph - N/A   Scattered Clouds
10:14 AM 73.9 °F 47.8 °F 40% 30.12 in 10.0 mi NNE 9.2 mph - N/A   Clear
10:34 AM 74.1 °F 47.5 °F 39% 30.12 in 10.0 mi NNE 11.5 mph 16.1 mph N/A   Clear
10:54 AM 75.6 °F 46.9 °F 36% 30.12 in 10.0 mi NE 6.9 mph - N/A   Clear
11:14 AM 75.7 °F 45.7 °F 34% 30.12 in 10.0 mi NNE 8.1 mph - N/A   Clear
11:34 AM 77.0 °F 46.0 °F 33% 30.12 in 10.0 mi NE 8.1 mph 20.7 mph N/A   Clear
11:53 AM 77.5 °F 46.6 °F 33% 30.12 in 10.0 mi NNE 9.2 mph 16.1 mph N/A   Clear
12:14 PM 78.4 °F 47.7 °F 34% 30.12 in 10.0 mi NNE 5.8 mph 19.6 mph N/A   Clear
12:34 PM 78.6 °F 47.8 °F 34% 30.12 in 10.0 mi NNE 5.8 mph - N/A   Clear
12:54 PM 79.9 °F 46.2 °F 30% 30.12 in 10.0 mi NE 5.8 mph - N/A   Clear
1:14 PM 80.2 °F 45.7 °F 30% 30.12 in 10.0 mi NNE 5.8 mph 17.3 mph N/A   Clear
1:34 PM 81.1 °F 46.0 °F 29% 30.12 in 10.0 mi ENE 9.2 mph - N/A   Clear
1:54 PM 81.0 °F 45.9 °F 29% 30.12 in 10.0 mi NE 5.8 mph - N/A   Clear
2:14 PM 81.5 °F 46.2 °F 29% 30.12 in 10.0 mi ENE 6.9 mph - N/A   Clear
2:34 PM 82.4 °F 46.4 °F 28% 30.11 in 10.0 mi NE 5.8 mph - N/A   Clear
2:54 PM 82.2 °F 46.4 °F 28% 30.11 in 10.0 mi NNE 4.6 mph - N/A   Clear
3:14 PM 82.6 °F 46.6 °F 28% 30.12 in 10.0 mi NE 5.8 mph - N/A   Clear
3:34 PM 82.6 °F 47.3 °F 29% 30.11 in 10.0 mi NE 4.6 mph - N/A   Clear
3:54 PM 82.9 °F 46.8 °F 28% 30.11 in 10.0 mi East 5.8 mph - N/A   Clear
4:14 PM 82.4 °F 47.7 °F 30% 30.11 in 10.0 mi East 5.8 mph - N/A   Clear
4:34 PM 83.3 °F 47.8 °F 29% 30.11 in 10.0 mi NE 3.5 mph - N/A   Clear
4:54 PM 83.1 °F 47.7 °F 29% 30.11 in 10.0 mi NNE 3.5 mph - N/A   Clear
5:14 PM 82.9 °F 47.1 °F 29% 30.11 in 10.0 mi ENE 4.6 mph - N/A   Clear
5:34 PM 82.6 °F 47.5 °F 29% 30.10 in 10.0 mi East 4.6 mph - N/A   Clear
5:54 PM 82.8 °F 47.5 °F 29% 30.10 in 10.0 mi East 3.5 mph - N/A   Clear
6:14 PM 82.4 °F 47.3 °F 29% 30.10 in 10.0 mi Calm Calm - N/A   Clear
6:34 PM 81.7 °F 48.6 °F 31% 30.10 in 10.0 mi Calm Calm - N/A   Clear
6:54 PM 81.1 °F 50.2 °F 34% 30.10 in 10.0 mi Calm Calm - N/A   Clear
7:14 PM 80.4 °F 50.5 °F 35% 30.10 in 10.0 mi Calm Calm - N/A   Clear
7:34 PM 77.9 °F 55.9 °F 47% 30.10 in 10.0 mi Calm Calm - N/A   Clear
7:54 PM 75.2 °F 57.4 °F 54% 30.10 in 10.0 mi Calm Calm - N/A   Clear
8:14 PM 72.9 °F 57.4 °F 58% 30.10 in 10.0 mi WNW 3.5 mph - N/A   Clear
8:34 PM 71.6 °F 57.7 °F 62% 30.10 in 10.0 mi Calm Calm - N/A   Clear
8:54 PM 68.7 °F 57.4 °F 67% 30.11 in 7.0 mi Calm Calm - N/A   Clear
9:14 PM 68.2 °F 58.1 °F 70% 30.11 in 10.0 mi Calm Calm - N/A   Clear
9:34 PM 66.0 °F 57.2 °F 73% 30.12 in 10.0 mi Calm Calm - N/A   Clear
9:54 PM 65.7 °F 57.6 °F 75% 30.12 in 10.0 mi Calm Calm - N/A   Clear
10:14 PM 65.8 °F 57.4 °F 74% 30.12 in 10.0 mi Calm Calm - N/A   Clear
10:34 PM 64.9 °F 57.0 °F 75% 30.12 in 10.0 mi Calm Calm - N/A   Clear
10:54 PM 63.7 °F 57.2 °F 79% 30.12 in 10.0 mi Calm Calm - N/A   Clear
11:14 PM 63.7 °F 56.8 °F 78% 30.12 in 10.0 mi Calm Calm - N/A   Clear
11:34 PM 63.1 °F 56.3 °F 78% 30.13 in 10.0 mi NNW 5.8 mph - N/A   Clear
11:54 PM 62.8 °F 55.4 °F 77% 30.13 in 10.0 mi Calm Calm - N/A   Clear